TimeCDT,TemperatureF,Dew PointF,Humidity,Sea Level PressureIn,VisibilityMPH,Wind Direction,Wind SpeedMPH,Gust SpeedMPH,PrecipitationIn,Events,Conditions,WindDirDegrees,DateUTC
12:15 AM,69.8,57.2,64,29.92,10.0,ESE,6.9,-,N/A,,Scattered Clouds,110,2013-06-20 05:15:00
12:35 AM,68.0,59.0,73,29.94,10.0,ESE,5.8,-,N/A,,Scattered Clouds,110,2013-06-20 05:35:00
12:55 AM,68.0,59.0,73,29.94,10.0,ESE,9.2,-,N/A,,Scattered Clouds,120,2013-06-20 05:55:00
1:15 AM,69.8,59.0,68,29.94,10.0,ESE,10.4,-,N/A,,Light Drizzle,120,2013-06-20 06:15:00
1:35 AM,69.8,59.0,68,29.94,10.0,SE,6.9,-,N/A,,Scattered Clouds,130,2013-06-20 06:35:00
1:55 AM,68.0,59.0,73,29.94,10.0,SE,8.1,-,N/A,Thunderstorm,Thunderstorm,140,2013-06-20 06:55:00
2:15 AM,68.0,59.0,73,29.95,10.0,ESE,6.9,-,N/A,Thunderstorm,Clear,120,2013-06-20 07:15:00
2:35 AM,68.0,59.0,73,29.94,10.0,ESE,6.9,-,N/A,Thunderstorm,Clear,120,2013-06-20 07:35:00
2:55 AM,68.0,59.0,73,29.94,10.0,SE,6.9,-,N/A,,Clear,130,2013-06-20 07:55:00
3:15 AM,66.2,60.8,83,29.95,10.0,East,6.9,-,N/A,,Clear,90,2013-06-20 08:15:00
3:35 AM,66.2,60.8,83,29.94,10.0,ESE,9.2,-,N/A,,Clear,120,2013-06-20 08:35:00
3:55 AM,68.0,60.8,78,29.94,10.0,SE,5.8,-,N/A,Thunderstorm,Clear,140,2013-06-20 08:55:00
4:15 AM,68.0,60.8,78,29.94,10.0,SE,6.9,-,N/A,Thunderstorm,Mostly Cloudy,140,2013-06-20 09:15:00
4:35 AM,68.0,60.8,78,29.92,10.0,SE,8.1,-,N/A,,Scattered Clouds,130,2013-06-20 09:35:00
4:55 AM,68.0,60.8,78,29.90,10.0,SE,8.1,-,N/A,,Clear,140,2013-06-20 09:55:00
5:15 AM,68.0,60.8,78,29.92,10.0,SSE,5.8,-,N/A,,Mostly Cloudy,160,2013-06-20 10:15:00
5:35 AM,68.0,60.8,78,29.92,10.0,SSE,6.9,-,N/A,,Mostly Cloudy,150,2013-06-20 10:35:00
5:55 AM,68.0,62.6,83,29.92,10.0,SSE,9.2,-,N/A,,Scattered Clouds,160,2013-06-20 10:55:00
6:15 AM,68.0,62.6,83,29.94,10.0,SSE,8.1,-,N/A,Thunderstorm,Scattered Clouds,160,2013-06-20 11:15:00
6:35 AM,68.0,62.6,83,29.94,10.0,South,9.2,16.1,N/A,,Scattered Clouds,170,2013-06-20 11:35:00
6:55 AM,68.0,62.6,83,29.94,10.0,South,10.4,-,N/A,,Overcast,170,2013-06-20 11:55:00
7:15 AM,68.0,62.6,83,29.96,10.0,South,6.9,-,N/A,,Overcast,180,2013-06-20 12:15:00
7:35 AM,68.0,62.6,83,29.97,10.0,South,5.8,-,N/A,,Overcast,180,2013-06-20 12:35:00
7:55 AM,68.0,62.6,83,29.97,10.0,NW,3.5,-,N/A,,Overcast,310,2013-06-20 12:55:00
8:15 AM,68.0,62.6,83,29.98,10.0,SSW,3.5,-,N/A,Rain,Light Rain,210,2013-06-20 13:15:00
8:35 AM,68.0,62.6,83,29.97,10.0,Calm,Calm,-,N/A,Rain,Light Rain,0,2013-06-20 13:35:00
8:55 AM,68.0,64.4,88,29.97,10.0,Calm,Calm,-,N/A,Rain,Light Rain,0,2013-06-20 13:55:00
9:15 AM,69.8,64.4,83,30.00,10.0,Calm,Calm,-,N/A,,Scattered Clouds,0,2013-06-20 14:15:00
9:35 AM,69.8,64.4,83,30.00,10.0,ENE,3.5,-,N/A,,Mostly Cloudy,60,2013-06-20 14:35:00
9:55 AM,69.8,64.4,83,30.00,10.0,Calm,Calm,-,N/A,Rain,Light Rain,0,2013-06-20 14:55:00
10:15 AM,68.0,64.4,88,29.99,10.0,East,5.8,-,0.01,Rain,Light Rain,80,2013-06-20 15:15:00
10:35 AM,69.8,64.4,83,30.00,10.0,SE,3.5,-,0.01,Rain,Light Rain,130,2013-06-20 15:35:00
10:55 AM,68.0,64.4,88,29.99,10.0,SSE,8.1,-,0.03,Rain,Rain,160,2013-06-20 15:55:00
11:15 AM,68.0,64.4,88,29.93,7.0,SE,19.6,26.5,0.03,Rain,Rain,140,2013-06-20 16:15:00
11:35 AM,69.8,64.4,83,29.84,10.0,SE,21.9,29.9,0.03,,Scattered Clouds,140,2013-06-20 16:35:00
11:55 AM,69.8,64.4,83,29.87,10.0,SSE,26.5,32.2,0.03,,Clear,160,2013-06-20 16:55:00
12:15 PM,69.8,64.4,83,29.86,10.0,SE,19.6,28.8,N/A,,Clear,140,2013-06-20 17:15:00
12:35 PM,71.6,64.4,78,29.89,10.0,SSE,16.1,-,N/A,,Clear,160,2013-06-20 17:35:00
12:55 PM,75.2,66.2,73,29.91,10.0,SSE,12.7,-,N/A,,Clear,160,2013-06-20 17:55:00
1:15 PM,78.8,66.2,65,29.92,10.0,South,13.8,18.4,N/A,,Clear,180,2013-06-20 18:15:00
1:35 PM,78.8,64.4,61,29.94,10.0,SSE,13.8,25.3,N/A,,Scattered Clouds,160,2013-06-20 18:35:00
1:55 PM,80.6,64.4,58,29.94,10.0,South,13.8,18.4,N/A,,Scattered Clouds,170,2013-06-20 18:55:00
2:15 PM,80.6,64.4,58,29.94,10.0,South,16.1,-,N/A,,Scattered Clouds,170,2013-06-20 19:15:00
2:35 PM,80.6,64.4,58,29.92,10.0,SSE,15.0,-,N/A,,Scattered Clouds,160,2013-06-20 19:35:00
2:55 PM,82.4,64.4,54,29.91,10.0,SSE,13.8,21.9,N/A,,Scattered Clouds,160,2013-06-20 19:55:00
3:15 PM,82.4,62.6,51,29.91,10.0,South,17.3,-,N/A,,Mostly Cloudy,170,2013-06-20 20:15:00
3:35 PM,82.4,64.4,54,29.91,10.0,SSE,13.8,20.7,N/A,,Mostly Cloudy,160,2013-06-20 20:35:00
3:55 PM,82.4,64.4,54,29.90,10.0,South,11.5,17.3,N/A,,Mostly Cloudy,170,2013-06-20 20:55:00
4:15 PM,82.4,64.4,54,29.90,10.0,South,13.8,-,N/A,,Mostly Cloudy,170,2013-06-20 21:15:00
4:35 PM,82.4,62.6,51,29.90,10.0,South,16.1,-,N/A,,Mostly Cloudy,170,2013-06-20 21:35:00
4:55 PM,84.2,64.4,51,29.90,10.0,SSE,16.1,-,N/A,,Mostly Cloudy,150,2013-06-20 21:55:00
5:15 PM,84.2,64.4,51,29.89,10.0,SSE,12.7,19.6,N/A,,Scattered Clouds,160,2013-06-20 22:15:00
5:35 PM,82.4,64.4,54,29.89,10.0,South,10.4,-,N/A,,Mostly Cloudy,180,2013-06-20 22:35:00
5:55 PM,82.4,64.4,54,29.89,10.0,South,12.7,-,N/A,,Mostly Cloudy,170,2013-06-20 22:55:00
6:15 PM,82.4,64.4,54,29.88,10.0,SSE,11.5,-,N/A,,Mostly Cloudy,160,2013-06-20 23:15:00
6:35 PM,80.6,64.4,58,29.88,10.0,SSE,10.4,-,N/A,,Mostly Cloudy,160,2013-06-20 23:35:00
6:55 PM,80.6,64.4,58,29.88,10.0,SSE,8.1,-,N/A,,Overcast,150,2013-06-20 23:55:00
7:15 PM,80.6,64.4,58,29.87,10.0,ESE,6.9,-,N/A,,Overcast,120,2013-06-21 00:15:00
7:35 PM,78.8,64.4,61,29.87,10.0,ESE,8.1,-,N/A,,Overcast,120,2013-06-21 00:35:00
7:55 PM,80.6,64.4,58,29.87,10.0,ESE,6.9,-,N/A,,Overcast,110,2013-06-21 00:55:00
8:15 PM,78.8,64.4,61,29.87,10.0,ENE,6.9,-,N/A,,Overcast,60,2013-06-21 01:15:00
8:35 PM,75.2,66.2,73,29.87,10.0,ENE,11.5,18.4,N/A,,Overcast,60,2013-06-21 01:35:00
8:55 PM,73.4,68.0,83,29.86,10.0,ENE,12.7,-,N/A,Thunderstorm,Overcast,70,2013-06-21 01:55:00
9:15 PM,73.4,68.0,83,29.85,10.0,ENE,17.3,21.9,N/A,Rain-Thunderstorm,Light Thunderstorms and Rain,70,2013-06-21 02:15:00
9:35 PM,71.6,68.0,88,29.86,5.0,East,16.1,20.7,0.07,Rain-Thunderstorm,Heavy Thunderstorms and Rain,80,2013-06-21 02:35:00
9:55 PM,69.8,68.0,94,29.87,10.0,ENE,13.8,19.6,0.09,Rain-Thunderstorm,Light Thunderstorms and Rain,70,2013-06-21 02:55:00
10:15 PM,69.8,68.0,94,29.86,10.0,ENE,17.3,25.3,N/A,Thunderstorm,Overcast,70,2013-06-21 03:15:00
10:35 PM,69.8,68.0,94,29.86,10.0,ENE,11.5,21.9,N/A,Rain,Light Rain,70,2013-06-21 03:35:00
10:55 PM,68.0,68.0,100,29.85,5.0,East,17.3,20.7,0.17,Rain-Thunderstorm,Light Thunderstorms and Rain,80,2013-06-21 03:55:00
11:15 PM,68.0,66.2,94,29.83,10.0,ENE,20.7,32.2,0.01,Rain-Thunderstorm,Light Thunderstorms and Rain,70,2013-06-21 04:15:00
11:35 PM,68.0,66.2,94,29.84,10.0,ENE,17.3,-,0.07,Rain-Thunderstorm,Light Thunderstorms and Rain,70,2013-06-21 04:35:00
11:55 PM,68.0,64.4,88,29.82,5.0,NE,18.4,26.5,0.18,Rain-Thunderstorm,Heavy Thunderstorms and Rain,50,2013-06-21 04:55:00